User: anonymous   Login
Location: Unspecified
(0.0000°N, 0.0000°E)
Time: 09:38:07
(UTC+00:00)
Language:

ESSA 9 - Orbit

View from above orbital plane
View from above orbital plane
View from above satellite
View from above satellite

Ground track
Ground track

The orbit data is extracted from the following two-line orbital elements,

1  3764U 69016A   17295.81477039 -.00000030 +00000-0 +96492-4 0  9993
2  3764 101.7761 355.0958 0051226 097.7576 010.9009 12.49834812593128
Epoch (UTC): 22 October 2017 19:33:16
Eccentricity: 0.0051226
inclination: 101.7761°
perigee height: 1425 km
apogee height: 1505 km
right ascension of ascending node: 355.0958°
argument of perigee: 97.7576°
revolutions per day: 12.49834812
mean anomaly at epoch: 10.9009°
orbit number at epoch: 59312

The dashed part of the orbit path shows where the satellite is in the earth's shadow,  

DLR